Current weather by "City, St" or "zip code"  
 

Current Conditions: Tucumcari Municipal Airport, NM

Fair


71.0 F

Last Updated on Oct 31 2020, 12:53 pm MDT
Humidity: 30%
Wind Speed: NW 9.2 mph
Barometer 30.12 in
Dewpoint: 37.9 F
Visibility: 10.00 mi
Precip: --
Heat Index: NA
Wind Chill: NA
Current conditions at:

Tucumcari Municipal Airport, NM (KTCC)

Lat: 35.18053 Lon: 103.60145

Local Radar Image active severe weather and emergency alerts image image weather storm and storm spotter reports image weather observation monitoring service image
Local
Radar
Active
Alerts
Storm Reports Obs
Monitoring

Sign-up For Email & Text Message Weather Alert Notification Services



Advertise Here

Observation History for Tucumcari Municipal Airport, NM


Time Wind
(mph)
Vis
(mi)
Weather Precip (in) Temperature (F) Relative
Humidity
Wind
Chill
(F)
Heat
Index
(F)
Pressure
Air Dwpt altimeter
(in)
sea level
(mb)
Rmks
12:53 pm MDT NW 9.2 10.00 Fair -- 71.0 37.9 30% NA NA 30.12 1015.9
11:53 am MDT W 8.1 10.00 Fair -- 65.0 42.1 43% NA NA 30.12 1016.5
10:53 am MDT W 13.8 10.00 Fair -- 62.0 42.1 48% 60 NA 30.12 1016.8
9:53 am MDT W 16.1 10.00 Fair -- 57.0 39.9 53% 53 NA 30.11 1017.0
8:53 am MDT W 18.4 10.00 Fair -- 53.0 39.0 59% 48 NA 30.08 1016.2
7:53 am MDT W 11.5 10.00 Fair -- 49.0 37.9 66% 44 NA 30.06 1015.3
6:53 am MDT SW 12.7 10.00 Fair -- 50.0 37.0 61% 45 NA 30.04 1014.6
5:53 am MDT SW 16.1 10.00 Fair -- 49.0 37.0 64% 43 NA 30.03 1014.0
4:53 am MDT SW 6.9 10.00 Fair -- 49.0 36.0 61% 46 NA 30.03 1013.6
3:53 am MDT SW 15.0 10.00 Fair -- 49.0 37.0 64% 43 NA 30.03 1013.3
2:53 am MDT SW 19.6 10.00 Fair -- 51.0 36.0 56% 45 NA 30.04 1013.5
1:53 am MDT SW 17.3 10.00 Fair -- 51.0 36.0 56% 45 NA 30.05 1014.0
12:53 am MDT SW 23.0 G 32.2 10.00 Fair and Breezy -- 55.0 35.1 47% 50 NA 30.05 1013.8
11:53 pm MDT SW 21.9 10.00 Fair and Breezy -- 53.0 37.0 55% 47 NA 30.06 1014.8
10:53 pm MDT SW 16.1 10.00 Fair -- 52.0 39.0 61% 47 NA 30.08 1016.1
9:53 pm MDT W 10.4 10.00 Fair -- 51.0 39.9 66% 47 NA 30.08 1016.5
8:53 pm MDT SW 13.8 10.00 Fair -- 53.0 41.0 64% 49 NA 30.07 1016.6
7:53 pm MDT SW 16.1 10.00 Fair -- 56.0 39.9 55% 52 NA 30.08 1017.2
6:53 pm MDT SW 16.1 10.00 Fair -- 57.0 39.9 53% 53 NA 30.07 1016.8
5:53 pm MDT S 6.9 10.00 Fair -- 61.0 42.1 50% 60 NA 30.06 1016.1
4:53 pm MDT SW 13.8 10.00 Fair -- 66.0 41.0 40% NA NA 30.07 1016.2
3:53 pm MDT SW 16.1 10.00 Fair -- 68.0 41.0 38% NA NA 30.08 1016.5
2:53 pm MDT SW 16.1 10.00 Fair -- 68.0 42.1 39% NA NA 30.10 1016.9
1:53 pm MDT W 10.4 10.00 Fair -- 66.0 44.1 45% NA NA 30.13 1017.7

Regional Weather Observation


Cannon Air Force Base / Clovis, NM (KCVS)

Fair
69.0 F

Clovis Municipal Airport, NM (KCVN)

Fair
71.0 F

Clayton Municipal Airpark, NM (KCAO)

Fair
71.0 F

Las Vegas Municipal Airport, NM (KLVS)

Fair
67.0 F

Dalhart, Dalhart Municipal Airport, TX (KDHT)

Fair and Breezy
76.0 F

Hereford Municipal Airport, TX (KHRX)

Fair
74.0 F